Погода в Раевской

Россия / Краснодарский край     44°50′10″N   37°32′58″E
темп.,
°C
ветер,
м/с
пор.,
м/с
влажн.,
%
обл.,
%
осадки,
мм/ч
давл.,
гПа
погр.,
м
22 января, пт
пт2200:00+5ююз8127890 0.0 1029453
03:00+6ююз10147584 0.1 1029600
06:00+6ю10147693 0.0 1029574
09:00+6ю10147962 0.1 1029561
12:00+7ю10128229 0.0 1029884
15:00+7ю9128046 0.1 1027780
18:00+6ю711814 0.0 1027362
21:00+6ююв6108121 0.0 1026289
23 января, сб
сб2300:00+6ююв587997 0.0 1026204
03:00+6ююв587771 0.0 1024205
06:00+6ююв58782 0.0 1024224
09:00+7ююв698031 0.0 1024280
12:00+9ююв697260 0.0 1024602
15:00+9ююв6107555 0.0 1022562
18:00+7юв58840 0.0 1022239
21:00+7юв57790 0.0 1022176
24 января, вс
вс2400:00+6юв568119 0.0 1021151
03:00+6юв468352 0.0 1020138
06:00+6юв4678100 0.0 1018140
09:00+6юв5768100 0.0 1018189
12:00+9юв61162100 0.0 1017602
15:00+9юв7127199 0.0 1016624
18:00+8ююв6980100 0.0 1016336
21:00+8ююв5886100 0.0 1017274
25 января, пн
пн2500:00+7юв578699 0.0 1017183
03:00+8юв5884100 0.0 1017202
06:00+7юв698534 0.0 1016218
09:00+8юв6108336 0.0 1017341
12:00+10юв7136592 0.0 1015609
15:00+10юв7127496 0.0 1013554
18:00+8юв71383100 0.0 1013479
21:00+9юв61281100 0.0 1013509
26 января, вт
вт2600:00+9юв7147846 0.0 1012466
03:00+9ююв5117873 0.1 1013410
06:00+9ююв71280100 1.9 1012429
09:00+10ююв81873100 2.0 1011674
12:00+11ю10186986 0.0 1011826
15:00+9юз6138493 0.4 1013803
18:00+8зюз5880100 0.1 1015579
21:00+7юз3578100 0.1 1017250